Tracking 27423 objects as of 9-Jun-2023
HD Live streaming from Space Station
objects crossing your sky now

SRMSAT

Track SRMSAT now!
10-day predictions
SRMSAT is classified as:


NORAD ID: 37841
Int'l Code: 2011-058D
Perigee: 854.9 km
Apogee: 871.9 km
Inclination: 20.0 °
Period: 102.1 minutes
Semi major axis: 7234 km
RCS: 0.1933 m2 (medium)
Launch date: October 12, 2011
Source: India (IND)
Launch site: SRIHARIKOTA (SRI)

Uplink (MHz): 145.900
Downlink (MHz): 437.500
Beacon (MHz): 437.425
Mode: CW
Call sign:
Status: Inactive

Your satellite tracking list
Your tracking list is empty




NASA's NSSDC Master Catalog

Two Line Element Set (TLE):
1 37841U 11058D   23159.67775234  .00000448  00000-0  10073-3 0  9999
2 37841  19.9718 261.4769 0011761 298.9478 202.1053 14.10899690601601
Source of the keplerian elements: Caltech